Location: Bois de la Silve
(44.4667°N, 6.7833°E)
Time: 04:21:23
(UTC+00:00)

Cosmos 1954 Rocket - Pass Details

Date: 14 July 2020
Orbit: 751 x 782 km, 74.0° (Epoch: 06 August)

Event Time Altitude Azimuth Distance (km) Brightness Sun altitude
Exits shadow 02:08:19 25° 215° (SW) 1,517 4.9 -15.6°
Maximum altitude 02:11:23 68° 293° (WNW) 836 4.1 -15.3°
Drops below altitude 10° 02:16:41 10° 16° (NNE) 2,340 7.6 -14.7°
Sets 02:19:06 0° 19° (NNE) 3,275 8.7 -14.5°
